Weather reports worldwide

Advertisment
Medina De Pomar, Spain (8063): temperature & dewpoint: 01.08.2020 02:00:00 - 07.08.2020 02:00:00 (CEST)Medina De Pomar, Spain (8063): wind speed & gusts: 01.08.2020 02:00:00 - 07.08.2020 02:00:00 (CEST)Medina De Pomar, Spain (8063): wind direction: 01.08.2020 02:00:00 - 07.08.2020 02:00:00 (CEST)Medina De Pomar, Spain (8063): reduced air pressure: 01.08.2020 02:00:00 - 07.08.2020 02:00:00 (CEST)Medina De Pomar, Spain (8063): visibility: 01.08.2020 02:00:00 - 07.08.2020 02:00:00 (CEST)Medina De Pomar, Spain (8063): sunshine duration: 01.08.2020 02:00:00 - 07.08.2020 02:00:00 (CEST)Medina De Pomar, Spain (8063): precipitation: 01.08.2020 02:00:00 - 07.08.2020 02:00:00 (CEST)
Date & Time tt [°C] td [°C] ff [km/h] ff [kn] fx [km/h] fx [kn] dd ppp [hPa] vv [km] sd [min] rr [mm]
07.08.2020 02:00:00 21,3 14,7 0 0 5 3 N 1014,6 20 0 -
07.08.2020 01:00:00 22,7 15,1 0 0 5 3 N 1014,2 20 0 0,0
07.08.2020 00:00:00 24,7 15,3 0 0 6 3 N 1013,5 20 0 0,0
06.08.2020 23:00:00 27,0 15,3 5 3 16 9 N 1012,7 20 0 0,0
06.08.2020 22:00:00 29,4 14,0 2 1 11 6 N 1011,4 20 0 0,0
06.08.2020 21:00:00 32,6 13,3 6 3 30 16 NNE 1010,3 20 48 0,0
06.08.2020 20:00:00 34,3 10,9 9 5 23 12 ENE 1009,4 20 16 -
06.08.2020 19:00:00 35,8 9,3 8 4 23 13 SE 1009,0 20 16 0,0
06.08.2020 18:00:00 35,6 9,2 6 4 24 13 ESE 1009,1 20 26 0,0
06.08.2020 17:00:00 37,4 8,3 11 6 26 14 ESE 1009,0 20 60 0,0
06.08.2020 16:00:00 37,0 7,9 8 4 26 14 SSE - 20 60 0,0
06.08.2020 15:00:00 34,8 9,3 5 3 18 10 S - 20 60 0,0
06.08.2020 14:00:00 32,6 9,4 8 4 18 10 SE 1011,9 20 60 -
06.08.2020 13:00:00 28,9 8,5 6 3 14 7 S 1013,3 20 60 0,0
06.08.2020 12:00:00 25,1 8,5 3 2 11 6 SW 1014,8 20 60 0,0
06.08.2020 11:00:00 21,4 8,9 3 1 9 5 WSW 1015,9 20 60 0,0
06.08.2020 10:00:00 17,5 8,4 2 1 6 4 S 1017,0 20 60 0,0
06.08.2020 09:00:00 13,6 7,4 1 1 6 3 ENE 1018,1 14 14 0,0
06.08.2020 08:00:00 9,5 6,4 2 1 6 3 NE 1018,8 20 2 -
06.08.2020 07:00:00 9,7 6,1 3 1 6 3 ENE 1018,4 20 0 0,0
06.08.2020 06:00:00 10,7 7,1 4 2 10 5 NNE 1017,9 20 0 0,0
06.08.2020 05:00:00 11,2 7,3 3 2 7 4 NE 1017,8 20 0 0,0
06.08.2020 04:00:00 12,3 8,4 3 1 6 4 NNE 1017,6 20 0 0,0
06.08.2020 03:00:00 13,5 9,3 5 3 7 4 NE 1017,4 20 0 0,0
06.08.2020 02:00:00 15,4 10,5 2 1 8 5 WNW 1016,8 20 0 -
06.08.2020 01:00:00 16,7 11,0 2 1 9 5 E 1016,4 20 0 0,0
06.08.2020 00:00:00 19,1 10,4 3 2 11 6 NNE 1015,6 20 0 0,0
05.08.2020 23:00:00 21,0 10,2 3 2 13 7 NNE 1014,9 20 0 0,0
05.08.2020 22:00:00 24,4 10,3 6 3 18 10 NNE 1013,3 20 5 0,0
05.08.2020 21:00:00 27,3 9,6 11 6 25 13 NNE 1011,8 20 56 0,0
05.08.2020 20:00:00 29,9 8,3 11 6 30 16 NNE 1010,6 20 60 -
05.08.2020 19:00:00 31,8 7,4 13 7 30 16 NNE 1010,0 20 60 0,0
05.08.2020 18:00:00 32,7 4,5 15 8 27 15 N 1009,7 20 60 0,0
05.08.2020 17:00:00 34,2 0,6 8 4 19 10 NE 1009,5 20 60 0,0
05.08.2020 16:00:00 32,7 2,7 7 4 18 10 NNW 1010,1 20 60 0,0
05.08.2020 15:00:00 31,4 -0,3 6 3 13 7 E 1010,9 20 60 0,0
05.08.2020 14:00:00 28,3 5,8 4 2 10 6 NE 1012,0 20 60 -
05.08.2020 13:00:00 25,6 6,7 4 2 11 6 ESE 1013,1 20 60 0,0
05.08.2020 12:00:00 21,4 9,9 3 2 10 5 ESE 1014,7 20 60 0,0
05.08.2020 11:00:00 16,7 11,7 4 2 8 4 ESE 1016,2 20 56 0,0
05.08.2020 10:00:00 11,9 10,6 3 2 9 5 SSW 1017,7 9 0 0,0
05.08.2020 09:00:00 10,3 9,2 1 1 5 3 SE 1018,0 1,7 0 0,0
05.08.2020 08:00:00 8,4 7,1 3 2 5 3 NE 1018,3 20 0 -
05.08.2020 07:00:00 8,5 7,1 3 1 8 4 NE 1018,1 20 0 0,0
05.08.2020 06:00:00 9,0 7,4 3 2 6 3 NNE 1018,2 20 0 0,0
05.08.2020 05:00:00 10,2 8,8 3 2 8 4 ESE 1018,1 20 0 0,0
05.08.2020 04:00:00 11,2 9,4 1 1 5 3 NNE 1018,1 20 0 0,0
05.08.2020 03:00:00 12,4 10,4 1 1 8 4 N 1018,2 20 0 0,0
05.08.2020 02:00:00 13,7 11,6 2 1 10 5 NNE 1018,3 20 0 -
05.08.2020 01:00:00 15,0 12,0 3 1 10 5 ESE 1018,2 20 0 0,0
05.08.2020 00:00:00 16,8 12,7 5 3 13 7 N 1017,7 20 0 0,0
04.08.2020 23:00:00 18,0 12,8 5 3 17 9 NNE 1017,3 20 0 0,0
04.08.2020 22:00:00 19,4 12,8 6 4 22 12 N 1016,8 20 5 0,0
04.08.2020 21:00:00 21,5 12,1 11 6 27 14 NE 1016,0 20 55 0,0
04.08.2020 20:00:00 23,5 11,2 14 8 25 13 ENE 1015,5 20 60 -
04.08.2020 19:00:00 24,4 11,0 11 6 27 14 NNE 1015,3 20 60 0,0
04.08.2020 18:00:00 24,5 10,0 9 5 30 16 NNE 1015,6 20 60 0,0
04.08.2020 17:00:00 25,3 9,9 9 5 26 14 ENE 1015,9 20 60 0,0
04.08.2020 16:00:00 24,1 10,4 9 5 29 15 N 1016,8 20 53 0,0
04.08.2020 15:00:00 23,6 10,6 11 6 24 13 NNE 1017,5 20 29 0,0
04.08.2020 14:00:00 22,6 10,4 7 4 20 11 NE 1018,1 20 25 -
04.08.2020 13:00:00 21,4 11,7 6 3 18 10 E 1018,6 20 27 0,0
04.08.2020 12:00:00 19,1 12,1 6 3 15 8 ENE 1019,5 20 22 0,0
04.08.2020 11:00:00 17,7 11,4 4 2 10 5 ESE 1019,8 20 0 0,0
04.08.2020 10:00:00 16,0 10,5 4 2 8 4 SSE 1020,2 20 0 0,0
04.08.2020 09:00:00 14,3 10,3 3 1 8 4 NW 1020,4 20 0 0,0
04.08.2020 08:00:00 13,3 10,0 2 1 6 3 ENE 1020,3 20 0 -
04.08.2020 07:00:00 12,7 9,9 2 1 8 4 W 1020,5 20 0 0,0
04.08.2020 06:00:00 12,4 9,9 4 2 9 5 NE 1020,8 20 0 0,0
04.08.2020 05:00:00 11,4 9,4 3 2 5 3 SSE 1021,5 20 0 0,0
04.08.2020 04:00:00 11,4 9,3 3 1 7 4 NE 1021,9 20 0 0,0
04.08.2020 03:00:00 11,6 9,2 1 1 7 4 SE 1021,7 20 0 0,0
04.08.2020 02:00:00 12,7 9,9 3 2 9 5 NNE 1021,6 20 0 -
04.08.2020 01:00:00 14,1 10,2 5 3 10 5 W 1021,1 20 0 0,0
04.08.2020 00:00:00 15,0 10,6 3 2 11 6 NNE 1020,8 20 0 0,0
03.08.2020 23:00:00 15,9 10,9 4 2 21 11 N 1020,0 20 0 0,0
03.08.2020 22:00:00 17,3 11,1 11 6 33 18 NNE 1019,2 20 7 0,0
03.08.2020 21:00:00 19,5 11,0 12 7 31 17 NNE 1018,0 20 37 0,0
03.08.2020 20:00:00 22,0 10,5 16 8 32 18 NNE 1016,8 20 60 -
03.08.2020 19:00:00 22,9 10,6 13 7 33 18 NE 1016,5 20 60 0,0
03.08.2020 18:00:00 23,7 11,1 14 7 38 21 NNE 1016,2 20 60 0,0
03.08.2020 17:00:00 24,3 10,5 11 6 29 16 NE 1016,3 20 60 0,0
03.08.2020 16:00:00 23,7 10,4 11 6 33 18 NNE 1016,8 20 60 0,0
03.08.2020 15:00:00 24,0 9,2 11 6 37 20 NNE 1017,1 20 60 0,0
03.08.2020 14:00:00 23,3 7,8 6 3 20 11 N 1017,5 20 60 -
03.08.2020 13:00:00 22,5 7,8 6 3 19 10 WNW 1018,0 20 60 0,0
03.08.2020 12:00:00 20,0 8,9 5 3 15 8 NNE 1019,0 20 57 0,0
03.08.2020 11:00:00 18,8 9,6 6 3 14 8 N 1019,6 20 60 0,0
03.08.2020 10:00:00 16,7 11,4 3 1 16 9 WSW 1020,1 20 60 0,0
03.08.2020 09:00:00 13,8 11,0 1 1 5 3 SSW 1020,4 20 13 0,0
03.08.2020 08:00:00 10,6 9,3 1 1 6 3 N 1021,5 20 0 -
03.08.2020 07:00:00 10,8 9,2 0 0 4 2 N 1021,4 20 0 0,0
03.08.2020 06:00:00 11,5 9,8 2 1 5 3 NNE 1020,9 20 0 0,0
03.08.2020 05:00:00 12,3 10,2 4 2 7 4 W 1020,8 20 0 0,0
03.08.2020 04:00:00 13,1 10,4 3 2 7 4 NNE 1020,9 20 0 0,0
03.08.2020 03:00:00 14,9 11,4 2 1 17 9 N 1020,6 20 0 0,0
03.08.2020 02:00:00 15,4 11,3 7 4 19 10 NE 1020,8 20 0 -
03.08.2020 01:00:00 15,5 11,9 8 5 24 13 NE 1021,5 20 0 0,0
03.08.2020 00:00:00 16,1 11,2 8 5 20 11 NE 1021,6 20 0 0,0
02.08.2020 23:00:00 16,5 11,0 5 3 20 11 NNE 1021,4 20 0 0,0
02.08.2020 22:00:00 17,1 11,3 9 5 24 13 NE 1021,2 20 0 0,0
02.08.2020 21:00:00 18,2 11,0 10 6 23 13 NNE 1020,4 20 11 0,0
02.08.2020 20:00:00 19,2 10,8 10 5 27 15 NNE 1020,0 20 1 -
02.08.2020 19:00:00 19,3 10,9 12 7 27 15 NNE 1019,7 20 22 0,0
02.08.2020 18:00:00 20,3 11,4 14 8 32 18 NE 1019,7 20 41 0,0
02.08.2020 17:00:00 20,7 11,3 14 8 36 19 NE 1020,1 20 31 0,0
02.08.2020 16:00:00 20,7 12,4 14 7 36 19 NNE 1020,7 20 18 0,0
02.08.2020 15:00:00 20,5 12,4 12 6 27 14 NE 1020,6 20 0 0,0
02.08.2020 14:00:00 20,8 12,2 13 7 33 18 NE 1020,7 20 14 -
02.08.2020 13:00:00 20,5 12,2 11 6 29 16 ENE 1021,2 20 0 0,0
02.08.2020 12:00:00 19,2 12,0 11 6 27 15 NNE 1021,5 20 0 0,0
02.08.2020 11:00:00 18,2 12,6 9 5 24 13 N 1021,5 20 0 0,0
02.08.2020 10:00:00 17,3 12,6 9 5 21 11 NE 1021,7 20 0 0,0
02.08.2020 09:00:00 16,7 12,6 6 3 13 7 NNE 1021,6 20 0 0,0
02.08.2020 08:00:00 16,5 13,3 3 1 10 6 NNE 1021,5 20 0 -
02.08.2020 07:00:00 16,6 13,0 5 3 9 5 E 1021,4 20 0 0,0
02.08.2020 06:00:00 16,7 13,3 3 1 15 8 NNE 1021,4 20 0 0,0
02.08.2020 05:00:00 16,8 13,2 8 4 16 9 NE 1021,3 20 0 0,0
02.08.2020 04:00:00 17,0 13,4 4 2 10 5 NNE 1021,3 20 0 0,0
02.08.2020 03:00:00 17,1 13,5 3 2 9 5 NNE 1021,8 20 0 0,0
02.08.2020 02:00:00 17,1 13,5 4 2 11 6 E 1022,2 20 0 -
02.08.2020 01:00:00 17,3 13,5 5 3 18 10 ENE 1022,5 20 0 0,0
02.08.2020 00:00:00 17,3 13,5 10 5 24 13 NE 1022,6 20 0 0,0
01.08.2020 23:00:00 17,8 13,6 8 4 27 15 NNE 1022,5 20 0 0,0
01.08.2020 22:00:00 18,4 14,3 11 6 26 14 NNE 1021,9 20 0 0,0
01.08.2020 21:00:00 19,2 14,4 5 3 26 14 NE 1021,5 20 0 0,0
01.08.2020 20:00:00 19,5 14,7 11 6 32 17 NE 1021,4 20 0 -
01.08.2020 19:00:00 20,9 14,5 15 8 34 18 NNE 1020,8 20 0 0,0
01.08.2020 18:00:00 21,4 14,5 16 8 33 18 NE 1020,5 20 0 0,0
01.08.2020 17:00:00 23,3 14,3 15 8 36 20 NE 1019,8 20 28 0,0
01.08.2020 16:00:00 25,1 13,9 15 8 30 16 NE 1019,2 20 34 0,0
01.08.2020 15:00:00 25,0 13,9 12 6 32 17 NE 1019,1 20 44 0,0
01.08.2020 14:00:00 23,5 13,1 8 4 22 12 ENE 1019,7 20 4 -
01.08.2020 13:00:00 22,1 13,5 8 5 19 11 NE 1020,1 20 0 0,0
01.08.2020 12:00:00 22,1 12,6 9 5 19 10 NE 1020,3 20 27 0,0
01.08.2020 11:00:00 21,2 12,3 4 2 14 8 NE 1020,0 20 60 0,0
01.08.2020 10:00:00 19,9 12,4 6 3 13 7 E 1020,1 18 60 0,0
01.08.2020 09:00:00 17,5 13,5 5 3 16 9 N 1020,5 20 18 0,0
01.08.2020 08:00:00 15,4 13,5 4 2 9 5 NNE 1020,8 17 0 -
01.08.2020 07:00:00 15,7 13,6 3 1 6 3 NE 1020,4 14 0 0,0
01.08.2020 06:00:00 16,9 14,3 3 2 6 3 NE 1019,7 17 0 0,0
01.08.2020 05:00:00 18,0 14,9 3 1 11 6 NNE 1019,5 20 0 0,0
01.08.2020 04:00:00 18,8 15,4 6 3 13 7 NE 1019,2 20 0 0,0
01.08.2020 03:00:00 18,9 15,8 5 3 10 6 N 1019,5 20 0 0,0
01.08.2020 02:00:00 19,6 16,2 5 3 11 6 NNE 1019,4 20 0 -

tt = temperature
td = dewpoint
ff = wind speed
fx = gusts
dd = wind direction
ppp = reduced air pressure
vv = visibility
sd = sunshine duration
rr = precipitation

Next stations